www.pogodaiklimat.ru

Погода и климат >> Архив погоды >> Япония >> Oita


ПОГОДА в Oita

  • Прогноз погоды в Oita
  • Монитор погоды в Oita
  • Климат города

АРХИВ ПОГОДЫ в Oita

Время (UTC), дата Ветер
(напр.,м/с)
 
Видим.   Явления Облачность Т
(С)
Тd
(С)
f
(%)
Тe
(С)
Тes
(С)
Комфортность P
(гПа)
Po
(гПа)
Тmin
(С)
Tmax
(С)
R
(мм)
R24
(мм)
S
(см)
22 13.05 Ю 2 н/о н/о +16.5 +15.2 92 +17 +17 1011.9 1010.3
23 13.05 ЮВ 2 н/о н/о +18.4 +15.3 82 +20 +20 1012.2 1010.6
00 14.05 С 2 10 км 1/1
[Cu hum]
+20.2 +16.7 80 +24 +35 комфорт 1012.3 1010.7 +14.7
01 14.05 С 3 н/о н/о +21.6 +16.6 73 +25 +25 комфорт 1012.3 1010.7
02 14.05 С 2 н/о н/о +23.6 +15.7 61 +27 +27 жарко 1012.1 1010.5
03 14.05 С 4 15 км 1/1
[Cu hum]
+24.7 +16.4 60 +28 +42 душно 1011.7 1010.2
04 14.05 В 5 н/о н/о +24.5 +17.0 63 +28 +28 душно 1011.3 1009.8
05 14.05 В 4 н/о н/о +23.8 +16.1 62 +27 +27 жарко 1011.0 1009.4
06 14.05 В 4 20 км 1/1
[Cu hum]
+24.1 +15.1 57 +27 +36 жарко 1011.0 1009.4
07 14.05 В 3 н/о н/о +24.9 +15.5 56 +28 +28 жарко 1010.6 1009.1
08 14.05 В 2 н/о н/о +25.1 +15.4 55 +28 +28 жарко 1010.4 1008.9
09 14.05 СЗ 2 15 км 1/1
[Cu hum]
+22.9 +15.0 61 +27 +28 душно 1010.8 1009.2
10 14.05 СЗ 2 н/о н/о +21.9 +15.0 65 +25 +25 комфорт 1011.4 1009.8
11 14.05 СЗ 1 н/о н/о +21.2 +15.5 70 +24 +24 комфорт 1011.6 1010.0
12 14.05 Ю 2 10 км 4/1
[Cu hum Ac trans Ci fib]
+20.7 +15.9 74 +25 +25 комфорт 1012.1 1010.5 +26.0
13 14.05 Ю 2 н/о н/о +19.7 +16.2 80 +22 +22 комфорт 1012.7 1011.1
14 14.05 Ю 2 н/о н/о +19.3 +15.8 80 +22 +22 комфорт 1012.7 1011.1
15 14.05 Ю 2 н/о н/о +18.3 +14.4 78 +19 +19 1012.6 1011.0
16 14.05 Ю 3 н/о н/о +17.8 +13.1 74 +18 +18 1012.3 1010.7
17 14.05 Ю 3 н/о н/о +17.0 +12.5 75 +17 +17 1012.3 1010.7
18 14.05 Ю 3 10 км 5/1
[Cu hum Ci fib]
+16.6 +13.1 80 +17 +17 1012.2 1010.6
19 14.05 Ю 3 н/о н/о +16.4 +12.4 77 +16 +16 1012.1 1010.5
20 14.05 Ю 2 н/о н/о +15.8 +11.8 77 +16 +16 1012.5 1010.9
21 14.05 Ю 3 25 км 4/1
[Cu hum Ci fib]
+15.8 +12.4 80 +15 +16 1013.3 1011.7
22 14.05 Ю 2 н/о н/о +17.3 +12.0 71 +18 +18 1014.0 1012.4
23 14.05 Ю 1 н/о н/о +19.9 +12.9 64 +23 +23 комфорт 1014.0 1012.4
00 15.05 СВ 2 20 км 9/0
[Ci fib]
+21.4 +13.3 60 +24 +34 комфорт 1014.1 1012.5 +15.5
01 15.05 С 2 н/о н/о +23.9 +14.9 57 +27 +27 жарко 1013.9 1012.3
02 15.05 С 3 н/о н/о +24.1 +15.3 58 +27 +27 жарко 1013.9 1012.3
03 15.05 С 4 15 км 9/0
[Ci fib]
+24.2 +13.4 51 +26 +39 жарко 1013.9 1012.3
04 15.05 С 3 н/о н/о +25.4 +15.4 54 +28 +28 жарко 1013.4 1011.9
05 15.05 С 3 н/о н/о +24.1 +16.6 63 +28 +28 душно 1013.2 1011.6
06 15.05 СЗ 5 15 км 9/0
[Ci fib]
+22.4 +15.8 66 +26 +33 жарко 1012.9 1011.3
07 15.05 С 4 н/о н/о +22.1 +15.2 65 +26 +26 душно 1012.9 1011.3
08 15.05 С 2 н/о н/о +22.9 +15.3 62 +27 +27 душно 1012.9 1011.3
09 15.05 С 1 15 км 9/0
[Ac trans Ci fib]
+23.0 +15.6 63 +27 +28 душно 1012.9 1011.3
10 15.05 СВ 1 н/о н/о +23.3 +14.9 59 +27 +27 душно 1012.8 1011.2
11 15.05 Ю 2 н/о н/о +23.5 +15.0 59 +26 +26 жарко 1012.8 1011.2
12 15.05 Ю 2 15 км 9/0
[Ac trans Ci fib]
+23.1 +15.2 61 +27 +27 душно 1012.9 1011.3 +26.4
13 15.05 СЗ 2 н/о н/о +21.7 +14.6 64 +25 +25 комфорт 1013.0 1011.4
14 15.05 СЗ 2 н/о н/о +20.1 +17.5 85 +24 +24 комфорт 1012.7 1011.1
15 15.05 С 1 н/о н/о +19.8 +17.2 85 +23 +23 комфорт 1012.5 1010.9
16 15.05 ЮЗ 1 н/о н/о +19.9 +17.1 84 +24 +24 комфорт 1012.3 1010.7
17 15.05 ЮВ 1 н/о н/о +19.7 +16.0 79 +23 +23 комфорт 1011.9 1010.3
18 15.05 СЗ 1 15 км 8/0
[Ci sp]
+19.0 +17.0 88 +22 +22 комфорт 1011.8 1010.2
19 15.05 Ю 2 н/о н/о +18.4 +15.8 85 +19 +19 1011.9 1010.3
20 15.05 Ю 2 н/о н/о +17.6 +15.4 87 +18 +18 1012.3 1010.7
21 15.05 Ю 2 20 км 8/0
[Ac trans Ci fib]
+17.8 +15.6 87 +18 +19 1012.8 1011.2
22 15.05 Ю 2 н/о н/о +19.4 +15.7 79 +22 +22 комфорт 1013.2 1011.6
23 15.05 Ю 1 н/о н/о +21.0 +15.8 72 +26 +26 душно 1013.3 1011.7
00 16.05 СЗ 3 15 км 9/0
[Ac trans Ci fib]
+22.4 +17.3 73 +27 +32 душно 1013.4 1011.8 +17.4
01 16.05 СЗ 2 н/о н/о +24.0 +17.0 65 +28 +28 душно 1013.3 1011.7
02 16.05 С 3 н/о н/о +25.5 +17.4 61 +30 +30 душно 1013.0 1011.5
03 16.05 С 4 10 км 6/1
[Cu hum Ac trans Ci fib]
+25.3 +19.4 70 +31 +41 очень
душно
1012.6 1011.1
04 16.05 С 3 н/о н/о +28.0 +20.6 64 +35 +35 очень
душно
1011.8 1010.3
05 16.05 СЗ 5 н/о н/о +26.4 +19.8 67 +32 +32 очень
душно
1011.0 1009.5
06 16.05 СЗ 5 15 км 9/1
[Cu hum Ac trans Ci sp]
+26.1 +20.0 69 +32 +36 очень
душно
1010.3 1008.8
07 16.05 СЗ 4 н/о н/о +26.4 +19.6 66 +32 +32 очень
душно
1010.2 1008.7
08 16.05 С 3 н/о н/о +25.4 +19.1 68 +30 +30 душно 1010.2 1008.7
09 16.05 Ю 3 10 км 9/1
[Cu hum Ac trans Ci fib]
+26.4 +18.5 62 +31 +32 душно 1010.4 1008.9
10 16.05 Ю 5 н/о н/о +25.9 +17.8 61 +30 +30 душно 1010.5 1009.0
11 16.05 Ю 2 н/о н/о +25.0 +18.0 65 +29 +29 душно 1011.1 1009.6
12 16.05 СЗ 2 10 км 9/0
[Ci fib]
+23.6 +19.1 76 +28 +28 душно 1012.0 1010.4 +28.1
13 16.05 СЗ 2 н/о н/о +22.4 +19.0 81 +28 +28 душно 1012.5 1010.9
14 16.05 СЗ 2 н/о н/о +22.4 +19.0 81 +28 +28 душно 1012.1 1010.5
15 16.05 СВ 1 н/о н/о +22.0 +19.4 85 +27 +27 душно 1011.6 1010.0
16 16.05 СЗ 1 н/о н/о +21.6 +18.8 84 +26 +26 душно 1011.1 1009.5
17 16.05 З 1 н/о н/о +20.6 +18.6 88 +26 +26 душно 1011.0 1009.4
18 16.05 СЗ 2 10 км 3/0
[Ci fib]
+20.6 +18.6 88 +25 +25 комфорт 1010.7 1009.1
19 16.05 штиль 0 н/о н/о +19.9 +19.1 95 +23 +23 комфорт 1010.7 1009.1
20 16.05 С 2 н/о н/о +20.0 +19.0 94 +24 +24 комфорт 1011.0 1009.4
21 16.05 СВ 1 9000 м дымка 9/1
[Cu hum Ac trans Ci fib]
+20.2 +19.0 93 +25 +26 комфорт 1011.4 1009.8
22 16.05 Ю 2 н/о н/о +21.1 +19.0 88 +25 +25 комфорт 1011.4 1009.8
23 16.05 С 1 н/о н/о +22.0 +19.6 86 +28 +28 душно 1011.9 1010.3
00 17.05 СЗ 2 9000 м дымка 9/1
[Cu hum Ac trans Ci fib]
+24.5 +19.6 74 +30 +36 очень
душно
1011.4 1009.9 +19.8
01 17.05 С 3 н/о н/о +24.2 +19.3 74 +29 +29 душно 1011.2 1009.6
02 17.05 С 3 н/о н/о +24.5 +20.2 77 +30 +30 очень
душно
1011.2 1009.7
03 17.05 С 3 8000 м дымка 9/9
[Cu Sc]
+23.4 +20.0 81 +30 +32 очень
душно
1011.0 1009.4
04 17.05 СЗ 3 н/о н/о +23.5 +20.1 81 +29 +29 душно 1010.8 1009.2
05 17.05 СЗ 3 н/о н/о +23.4 +20.0 81 +30 +30 очень
душно
1010.3 1008.7
06 17.05 СЗ 2 8000 м дымка 9/9
[Cu Sc]
+25.6 +20.6 74 +32 +33 очень
душно
1009.7 1008.2
07 17.05 С 3 н/о н/о +25.9 +20.5 72 +32 +32 очень
душно
1009.3 1007.8
08 17.05 С 3 н/о н/о +26.1 +20.4 71 +32 +32 очень
душно
1008.7 1007.2
09 17.05 С 2 10 км 1/1
[Cu hum]
+25.5 +20.3 73 +31 +33 очень
душно
1008.8 1007.3
10 17.05 СЗ 3 н/о н/о +24.3 +20.4 79 +30 +30 очень
душно
1009.2 1007.7
11 17.05 С 2 н/о н/о +22.7 +19.9 84 +29 +29 очень
душно
1009.6 1008.0
12 17.05 СЗ 2 10 км 1/1
[Cu hum]
+22.3 +20.0 87 +28 +28 душно 1009.7 1008.1 +28.5
13 17.05 С 2 н/о н/о +21.8 +19.9 89 +27 +27 душно 1009.8 1008.2
14 17.05 С 2 н/о н/о +21.3 +19.8 91 +26 +26 душно 1009.8 1008.2
15 17.05 С 2 н/о н/о +20.9 +19.7 93 +26 +26 душно 1009.4 1007.8
16 17.05 СЗ 2 н/о н/о +20.7 +19.7 94 +26 +26 душно 1008.7 1007.1
17 17.05 СВ 1 н/о н/о +20.8 +20.0 95 +27 +27 душно 1008.3 1006.7
18 17.05 В 1 5000 м дымка 1/1
[Cu hum]
+20.6 +19.8 95 +26 +26 душно 1007.9 1006.3
19 17.05 СЗ 2 н/о н/о +20.8 +20.3 97 +26 +26 душно 1008.0 1006.4
20 17.05 С 1 н/о н/о +20.3 +20.3 100 +25 +25 комфорт 1008.4 1006.8
21 17.05 З 1 200 м туман ?/? +20.5 +20.5 100 +26 +26 душно 1008.4 1006.8
22 17.05 С 2 н/о н/о +21.4 +20.7 96 +27 +27 душно 1008.3 1006.7
23 17.05 СЗ 2 н/о н/о +21.0 +20.2 95 +27 +27 душно 1008.2 1006.6
00 18.05 СЗ 3 4000 м в посл. час туман 9/3
[Sc Ac As Ci sp]
+22.7 +20.4 87 +29 +34 очень
душно
1008.0 1006.4 +20.2
01 18.05 С 2 н/о н/о +24.8 +21.1 80 +31 +31 очень
душно
1007.7 1006.2
02 18.05 С 3 н/о н/о +25.6 +20.4 73 +32 +32 очень
душно
1006.9 1005.4
03 18.05 С 4 10 км 9/4
[Cu Sc Ac As Ci sp]
+26.2 +21.0 73 +33 +38 очень
душно
1006.6 1005.1
04 18.05 С 3 н/о н/о +27.2 +21.5 71 +35 +35 очень
душно
1006.2 1004.7
05 18.05 С 3 н/о н/о +27.3 +21.1 69 +34 +34 очень
душно
1005.4 1003.9
06 18.05 СЗ 3 20 км 9/3
[Cu med, cong Ac As Ci sp]
+28.4 +21.2 65 +36 +41 очень
душно
1004.8 1003.3
07 18.05 ЮЗ 5 н/о н/о +29.7 +20.6 58 +37 +37 очень
душно
1004.0 1002.5
08 18.05 ЮЗ 5 н/о н/о +29.9 +20.7 58 +37 +37 очень
душно
1003.5 1002.0
09 18.05 ЮЗ 4 10 км слабый ливневой дождь 9/6
[Cu Sc Ac As]
+28.7 +21.2 64 +36 +36 очень
душно
1004.4 1002.9
10 18.05 ЮЗ 5 н/о н/о +27.1 +21.6 72 +35 +35 очень
душно
1004.7 1003.2
11 18.05 СЗ 2 н/о н/о +25.0 +21.1 79 +32 +32 очень
душно
1005.3 1003.8
12 18.05 СВ 4 20 км {ливн. осадки} 9/9
[Cu med, cong Ac As]
+22.8 +20.5 87 +30 +30 очень
душно
1006.2 1004.6 +31.0 0.0
13 18.05 СВ 4 н/о н/о +22.3 +20.2 88 +29 +29 очень
душно
1007.0 1005.4
14 18.05 С 2 н/о н/о +21.6 +19.2 86 +27 +27 душно 1007.3 1005.7
15 18.05 С 4 н/о н/о +21.1 +18.7 86 +25 +25 комфорт 1007.6 1006.0
16 18.05 С 4 н/о н/о +19.8 +17.2 85 +22 +22 комфорт 1007.9 1006.3
17 18.05 С 6 н/о н/о +19.0 +16.4 85 +20 +20 1008.2 1006.6
18 18.05 СЗ 4 15 км в посл. час ливневой дождь 9/9
[Cu Sc]
+19.1 +16.0 82 +21 +21 комфорт 1008.2 1006.6 0.0
19 18.05 С 5 н/о н/о +17.7 +15.2 85 +17 +17 1008.8 1007.2
20 18.05 С 6 н/о н/о +17.1 +14.6 85 +16 +16 1009.6 1008.0
21 18.05 С 6 25 км 10/10
[Cu Sc]
+17.0 +13.9 82 +16 +16 1010.5 1008.9
22 18.05 СЗ 7 н/о н/о +17.2 +13.9 81 +16 +16 1011.1 1009.5
23 18.05 С 5 н/о н/о +17.3 +13.6 79 +17 +17 1012.1 1010.5
00 19.05 СЗ 6 30 км 9/8
[Cu Sc Ac trans Ci sp]
+17.8 +13.5 76 +17 +18 1012.6 1011.0 +16.9 0.0
01 19.05 СЗ 7 н/о н/о +18.8 +13.4 71 +19 +19 1012.9 1011.3
02 19.05 С 7 н/о н/о +18.7 +13.6 72 +19 +19 1013.2 1011.6
03 19.05 СЗ 5 40 км 9/9
[Cu Sc Ci sp]
+18.9 +13.8 72 +20 +21 1013.4 1011.8
04 19.05 С 7 н/о н/о +20.4 +13.4 64 +22 +22 комфорт 1013.1 1011.5
05 19.05 С 7 н/о н/о +20.4 +13.9 66 +22 +22 комфорт 1012.7 1011.1
06 19.05 СЗ 6 40 км 9/8
[Cu Sc Ci sp]
+19.5 +13.0 66 +21 +22 комфорт 1012.5 1010.9
07 19.05 С 5 н/о н/о +19.9 +13.4 66 +22 +22 комфорт 1012.6 1011.0
08 19.05 СЗ 4 н/о н/о +19.5 +13.0 66 +21 +21 комфорт 1012.8 1011.2
09 19.05 С 3 30 км 9/6
[Cu Sc Ci sp]
+19.4 +13.4 68 +21 +21 комфорт 1013.3 1011.7
10 19.05 С 3 н/о н/о +18.9 +13.1 69 +20 +20 1013.8 1012.2
11 19.05 С 4 н/о н/о +18.5 +12.7 69 +19 +19 1014.7 1013.1
12 19.05 С 4 15 км 9/1
[Cu hum Ci sp]
+18.2 +12.0 67 +18 +18 1015.3 1013.7 +21.3
13 19.05 С 3 н/о н/о +17.7 +11.7 68 +18 +18 1016.1 1014.5
14 19.05 С 2 н/о н/о +17.0 +10.4 65 +17 +17 1016.5 1014.9
15 19.05 С 3 н/о н/о +16.7 +9.6 63 +17 +17 1016.5 1014.9
16 19.05 С 3 н/о н/о +15.8 +9.0 64 +16 +16 1016.5 1014.9
17 19.05 С 3 н/о н/о +15.3 +8.5 64 +15 +15 1016.6 1015.0
18 19.05 С 3 15 км 3/0
[Ci fib]
+15.1 +7.2 59 +15 +15 1016.7 1015.1
19 19.05 С 2 н/о н/о +15.0 +6.1 55 +15 +15 1016.6 1015.0
20 19.05 С 3 н/о н/о +15.0 +5.5 53 +15 +15 1016.7 1015.1
21 19.05 СЗ 3 40 км 1/0
[Ci fib]
+15.5 +4.6 48 +15 +16 1016.8 1015.2
22 19.05 С 3 н/о н/о +16.1 +4.2 45 +16 +16 1017.3 1015.7
23 19.05 С 3 н/о н/о +16.9 +4.9 45 +17 +17 1017.4 1015.8
00 20.05 С 4 40 км 1/1
[Cu hum]
+17.6 +5.2 44 +17 +24 1017.3 1015.7 +14.7
01 20.05 В 5 н/о н/о +18.5 +7.3 48 +18 +18 1017.5 1015.9
02 20.05 В 4 н/о н/о +19.2 +8.2 49 +20 +20 1017.1 1015.5
03 20.05 В 4 40 км 1/1
[Cu hum Ci sp]
+19.6 +7.0 44 +20 +33 опасность
простуды
1016.7 1015.1
04 20.05 СВ 5 н/о н/о +19.5 +7.9 47 +20 +20 1016.5 1014.9
05 20.05 СВ 5 н/о н/о +19.8 +8.2 47 +21 +21 комфорт 1016.1 1014.5
06 20.05 В 6 40 км 9/1
[Cu hum Ci sp]
+19.9 +8.3 47 +21 +25 комфорт 1015.9 1014.3
07 20.05 СВ 4 н/о н/о +19.6 +10.1 54 +21 +21 комфорт 1015.9 1014.3
08 20.05 С 4 н/о н/о +18.6 +10.7 60 +19 +19 1016.1 1014.5
09 20.05 СЗ 2 40 км 9/1
[Cu hum Ac As]
+18.1 +11.0 63 +19 +19 1016.6 1015.0
10 20.05 З 1 н/о н/о +18.2 +10.3 60 +19 +19 1017.3 1015.7
11 20.05 Ю 2 н/о н/о +19.4 +12.4 64 +21 +21 комфорт 1018.0 1016.4
12 20.05 ЮВ 3 30 км 10/1
[Cu hum Ac As]
+19.5 +12.8 65 +21 +21 комфорт 1018.0 1016.4 +20.9
13 20.05 Ю 2 н/о н/о +19.1 +12.8 67 +21 +21 комфорт 1018.0 1016.4
14 20.05 Ю 2 н/о н/о +19.2 +12.9 67 +21 +21 комфорт 1018.0 1016.4
15 20.05 Ю 1 н/о н/о +19.4 +13.4 68 +22 +22 комфорт 1017.8 1016.2
16 20.05 СВ 1 н/о н/о +19.6 +14.0 70 +22 +22 комфорт 1017.3 1015.7
17 20.05 В 4 н/о н/о +17.3 +15.5 89 +17 +17 1017.1 1015.5
18 20.05 ЮВ 2 15 км слабый дождь 10/3
[Sc Ac As]
+16.5 +15.9 96 +17 +17 1017.3 1015.7 4
19 20.05 Ю 2 н/о н/о +16.5 +16.0 97 +17 +17 1017.4 1015.8
20 20.05 ЮЗ 2 н/о н/о +16.6 +16.0 96 +17 +17 1017.8 1016.2

 

Местоположение метеостанции Oita (Япония): широта 33.23 долгота 131.61 высота над уровнем моря 13 м.

В архиве по умолчанию представлена погода в Oita за последнюю неделю. Архивные данные за месяц целиком и за предыдущие месяцы, начиная с января 2011 года, Вы можете получить, выбрав интересующий диапазон дат из раскрывающегося списка и нажав кнопку "Ввод!".


*Определитесь, кто Вы:
робот инопланетянин человек

Внимание! Время в таблицах - всемирное. Для получения местного времени необходимо прибавить поправку, которая в Oita равна 9 ч.

Смотрите также архив погоды в соседних городах и на ближайших метеорологических станциях:

Погода в Hita (Япония) (64 км)
Погода в Aso-San (Япония) (64 км)
Погода в Nobeoka (Япония) (72 км)
Погода в Uwajima (Япония) (87 км)
Погода в Kumamoto (Япония) (97 км)
Погода в Iizuka (Япония) (97 км)
Погода в Shimonoseki (Япония) (102 км)
Погода в Yamaguchi (Япония) (106 км)
Погода в Sukumo (Япония) (107 км)
Погода в Fukuoka (Япония) (121 км)

Пояснения к столбцам:

Ветер - указаны скорость ветра в м/с - средняя за 10 мин, порывы в срок и между сроками (в фигурных скобках) и направление, откуда дует ветер: С - северный, СВ - северо-восточный, В - восточный, ЮВ - юго-восточный, Ю - южный, ЮЗ - юго-западный, З - западный, СЗ - северо-западный.
Видимость - горизонтальная дальность видимости в метрах или километрах. При видимости от 1 до 10 км при отсутствии осадков обычно наблюдается дымка, при ухудшении видимости до 1 км и менее - туман. В сухую погоду видимость может ухудшаться дымом, пылью или мглою.
Явления - указаны атмосферные явления, наблюдавшиеся в срок или в последний час перед сроком; фигурными скобками обозначены явления, наблюдавшиеся между сроками (за 1-3 часа до срока); квадратными скобками обозначены град или гололедные отложения с указанием их диаметра в мм.
Облачность - указаны через наклонную черту общая и нижняя облачность в баллах и высота нижней границы облаков в метрах; квадратными скобками обозначены формы облаков: Ci - перистые, Cs - перисто-слоистые, Cc - перисто-кучевые, Ac - высококучевые, As - высокослоистые, Sc - слоисто-кучевые, Ns - слоисто-дождевые, Cu - кучевые, Cb - кучево-дождевые. Подробнее классификацию облаков см. в Атласе облаков (PDF).
T - Температура воздуха - температура, измеренная на высоте 2 м над землей.
Td - Температура точки росы - температура, при понижении до которой содержащийся в воздухе водяной пар достигнет насыщения.
f - Относительная влажность воздуха - влажноcть воздуха, измеренная на высоте 2 м над землей.
Te - Эффективная температура - температура, которую ощущает одетый по сезону человек в тени. Характеристика душности погоды. При расчете учитывается влияние влажности воздуха и скорости ветра на теплоощущения человека.
Tes - Эффективная температура на солнце - температура, которую ощущает человек, с поправкой на солнечный нагрев. Характеристика знойности погоды. Зависит от высоты солнца над горизонтом, облачности и скорости ветра. Ночью, в пасмурную погоду, а также при ветре 12 м/с и более поправка равна нулю.
P - Атмосферное давление - приведенное к уровню моря атмосферное давление.
Po - Атмосферное давление - измеренное на уровне метеостанции атмосферное давление.
Tmin - Минимальная температура - минимум температуры воздуха на высоте 2 м над землей.
Tmax - Максимальная температура - максимум температуры воздуха на высоте 2 м над землей.
R - Количество осадков - Количество выпавших осадков за период времени, мм. При наведении курсора мыши на число - период времени, за который выпало указанное количество осадков.
R24 - Количество осадков - Количество выпавших осадков за 24 часа, мм.
S - Снежный покров - Высота снежного покрова, см. При наведении курсора мыши на число - состояние снежного покрова и степень покрытия местности в баллах.